Location: Broletto
(44.6000°N, 10.5833°E)
Time: 03:15:39
(UTC+00:00)

Cosmos 2344 - Pass Details

Date: 18 April 2021
Orbit: 1240 x 3002 km, 63.3° (Epoch: 15 May)

Event Time Altitude Azimuth Distance (km) Brightness Sun altitude
Rises 18:23:11 0° 185° (S) 4,390 6.3 -3.7°
Reaches altitude 10° 18:26:21 10° 177° (S) 3,307 5.5 -4.2°
Maximum altitude 18:33:06 36° 114° (ESE) 1,860 4.0 -5.3°
Drops below altitude 10° 18:39:51 10° 50° (NE) 3,309 5.5 -6.4°
Sets 18:43:00 0° 42° (NE) 4,394 6.2 -7.0°
